Temp
20 19 19 18 19 19 19 18 18 17 17 16 16 16 16 16 15 15 14 15 14 14 14 14 14 14 14 14 15 15 15 15 15 16 16 16 16 16 16 16 16 16 16
20 19 19 18 18 19 18 18 18 17 17 17 17 16 16 16 15 15 14 14 14 14 14 13 14 14 14 14 14 14 14 14 14 15 16 16 16 16 16 16 16 16 16
19 19 19 18 19 18 18 18 17 17 17 17 16 16 15 15 15 14 14 13 13 13 12 13 13 13 14 14 14 14 14 14 14 14 14 15 15 15 16 16 16 16 16
19 19 18 18 19 18 18 18 17 17 17 17 16 16 15 14 14 14 14 13 13 12 12 12 13 13 13 13 13 13 13 13 14 14 14 14 14 14 14 14 15 16 16
18 18 18 18 18 18 18 17 17 17 16 16 15 15 15 15 14 14 13 13 13 13 13 13 13 13 13 12 12 13 13 12 13 13 13 13 13 13 12 13 13 14 15
17 16 18 18 18 18 17 18 17 17 16 16 15 15 14 14 13 13 14 14 14 14 14 13 13 13 13 13 12 12 12 13 13 12 12 12 13 13 13 12 13 13 14
17 17 16 17 18 18 17 17 17 16 16 16 15 14 13 13 14 14 14 13 13 13 12 12 12 12 12 13 13 12 12 11 10 11 11 12 12 12 12 12 13 13 13
18 17 17 17 17 17 16 16 16 16 15 15 14 13 13 14 13 13 13 12 12 11 11 11 11 11 11 11 11 12 12 12 11 10 9 9 10 11 11 12 12 12 13
16 17 18 17 17 17 16 16 16 15 15 13 13 13 13 13 12 12 11 11 11 11 11 11 10 10 10 10 10 11 11 10 10 10 9 9 9 10 10 10 10 10 11
18 18 17 17 17 16 17 16 16 15 14 13 13 12 12 12 12 11 11 10 10 10 10 9 9 9 9 9 10 10 9 8 8 8 9 10 10 10 10 10 10 9 10
17 17 16 17 16 16 16 16 15 13 13 12 12 12 12 11 11 10 10 10 9 9 9 9 8 8 8 8 8 8 8 9 8 7 7 7 8 8 9 10 10 9 9
17 18 18 16 16 16 15 15 13 13 12 12 11 11 11 11 10 10 10 9 9 9 9 9 8 8 8 8 8 7 7 7 7 6 6 6 6 7 8 8 9 10 9
18 17 16 15 15 15 14 14 13 12 12 11 11 11 11 10 10 10 10 10 10 10 10 9 9 9 9 8 8 7 7 7 6 5 4 4 5 5 6 7 8 8 8
16 16 16 15 15 15 13 13 13 12 11 11 11 11 10 10 10 10 10 10 10 10 10 10 9 9 9 8 8 7 6 6 5 5 5 4 4 5 5 5 5 7 7
16 16 16 16 15 14 12 12 12 12 11 11 10 10 10 10 10 10 10 10 10 10 10 10 10 10 9 9 8 7 6 6 5 5 5 5 5 5 5 5 4 5 5
16 16 16 14 13 12 12 12 11 11 10 10 11 11 11 11 11 11 11 10 10 10 10 10 10 10 10 9 9 8 7 6 6 5 5 5 5 5 5 5 5 4 4
16 15 14 13 13 12 12 11 11 11 11 11 11 11 11 11 11 11 11 11 11 10 10 10 10 10 10 9 9 8 7 7 6 5 5 5 5 5 5 5 5 4 5
14 14 13 13 12 12 12 11 11 11 11 11 11 11 11 11 11 11 11 11 11 11 11 10 10 10 10 9 9 8 7 7 6 6 5 5 5 5 5 5 5 5 4
14 13 13 12 12 12 11 11 11 12 12 11 11 11 11 11 11 11 11 11 11 11 10 10 10 10 9 9 9 8 7 6 6 6 6 5 5 5 6 5 5 5 4
13 12 12 12 12 12 11 11 11 11 11 11 12 12 12 12 12 12 11 11 11 10 10 10 9 9 9 8 8 7 7 6 6 6 5 5 5 6 5 5 5 5 4
13 12 12 12 12 12 12 12 11 12 12 12 12 12 12 12 12 12 11 11 11 10 10 9 8 8 8 8 7 7 6 6 6 5 5 6 6 6 6 6 5 5 4
13 12 13 12 12 12 11 12 12 12 12 12 12 12 12 12 12 12 11 11 10 10 9 8 8 8 7 7 6 6 6 6 5 5 5 6 6 6 6 6 5 5 4
12 12 12 12 12 11 12 13 13 13 12 12 12 12 12 12 12 11 11 10 10 9 8 8 8 7 7 7 6 6 5 5 5 5 5 6 6 6 6 6 5 5 5
12 12 12 12 12 12 13 13 13 13 13 12 12 12 12 12 11 11 10 10 9 9 8 8 7 7 6 6 6 6 5 5 5 5 5 5 6 6 6 6 5 5 4
11 11 11 11 12 12 12 12 13 13 12 12 12 12 12 11 11 10 10 10 9 9 8 7 7 6 6 6 5 5 5 5 5 5 5 5 6 6 6 6 5 5 5
11 11 11 11 12 12 12 12 12 12 12 12 12 12 11 11 10 10 10 9 9 8 7 7 6 6 6 5 5 5 5 5 5 5 5 6 6 7 7 6 6 5 5
Height
1521 1524 1527 1531 1534 1536 1539 1542 1543 1543 1543 1542 1542 1541 1540 1538 1537 1535 1532 1529 1527 1525 1522 1519 1516 1513 1511 1511 1509 1507 1505 1502 1499 1496 1496 1494 1493 1491 1489 1488 1488 1487 1486
1517 1521 1527 1530 1533 1537 1539 1540 1541 1541 1542 1541 1540 1538 1537 1535 1533 1532 1530 1527 1525 1522 1519 1517 1514 1512 1509 1508 1507 1505 1503 1501 1498 1495 1493 1492 1491 1489 1487 1485 1484 1483 1481
1518 1520 1524 1529 1534 1538 1540 1541 1541 1540 1540 1539 1538 1537 1535 1533 1531 1530 1528 1526 1523 1520 1518 1515 1513 1510 1507 1505 1504 1502 1500 1498 1495 1493 1490 1489 1487 1486 1483 1482 1480 1479 1478
1519 1519 1521 1528 1535 1536 1537 1540 1540 1539 1538 1537 1537 1535 1533 1532 1530 1528 1526 1525 1523 1520 1516 1513 1510 1507 1505 1502 1500 1498 1496 1493 1491 1489 1487 1485 1484 1482 1480 1477 1476 1475 1472
1520 1518 1523 1528 1532 1535 1536 1536 1539 1536 1535 1535 1534 1533 1531 1529 1528 1526 1524 1522 1521 1518 1514 1511 1507 1504 1503 1500 1496 1493 1491 1488 1486 1484 1482 1480 1479 1478 1476 1474 1471 1468 1466
1516 1510 1520 1523 1528 1532 1535 1535 1536 1535 1534 1534 1532 1530 1529 1527 1525 1523 1522 1519 1517 1515 1513 1509 1506 1503 1501 1498 1494 1491 1487 1483 1480 1477 1476 1474 1473 1473 1471 1469 1467 1464 1459
1513 1515 1518 1521 1528 1532 1534 1533 1533 1532 1532 1532 1532 1530 1527 1526 1524 1522 1520 1519 1516 1513 1511 1508 1505 1501 1498 1496 1493 1490 1486 1482 1479 1476 1472 1470 1466 1467 1465 1462 1461 1458 1456
1508 1513 1519 1522 1526 1529 1530 1531 1531 1531 1532 1530 1529 1529 1527 1525 1525 1523 1521 1519 1517 1514 1511 1508 1505 1501 1497 1494 1491 1488 1485 1481 1477 1474 1471 1468 1466 1462 1460 1456 1452 1450 1447
1509 1514 1518 1521 1525 1528 1527 1527 1528 1528 1530 1528 1529 1528 1526 1526 1526 1525 1524 1522 1518 1515 1512 1509 1506 1502 1498 1494 1489 1485 1482 1479 1477 1473 1469 1466 1463 1459 1456 1452 1448 1446 1441
1507 1512 1516 1521 1521 1522 1523 1524 1525 1526 1527 1527 1527 1526 1525 1525 1526 1526 1525 1523 1520 1517 1514 1510 1507 1503 1499 1494 1488 1482 1477 1472 1466 1464 1463 1460 1457 1454 1452 1448 1444 1442 1440
1504 1512 1515 1517 1517 1520 1522 1523 1524 1525 1526 1526 1528 1527 1526 1527 1527 1527 1526 1524 1521 1518 1515 1512 1509 1505 1500 1495 1490 1484 1479 1473 1466 1459 1455 1453 1450 1447 1445 1443 1440 1437 1434
1504 1508 1511 1516 1517 1518 1521 1523 1524 1526 1526 1527 1528 1527 1528 1529 1530 1529 1526 1523 1520 1517 1514 1512 1510 1506 1502 1496 1491 1486 1481 1475 1467 1460 1454 1449 1445 1441 1438 1435 1433 1431 1428
1502 1505 1509 1514 1518 1517 1519 1521 1522 1524 1525 1527 1529 1529 1531 1531 1530 1528 1526 1524 1521 1518 1515 1512 1509 1506 1502 1497 1491 1486 1480 1474 1467 1460 1454 1448 1443 1438 1433 1428 1426 1423 1419
1503 1507 1509 1513 1514 1516 1518 1520 1520 1523 1524 1526 1528 1530 1530 1529 1528 1527 1526 1524 1522 1518 1514 1511 1507 1502 1498 1494 1489 1485 1479 1474 1468 1462 1457 1451 1444 1438 1432 1426 1420 1416 1411
1504 1506 1508 1512 1514 1516 1518 1519 1520 1523 1525 1527 1530 1530 1529 1528 1527 1527 1524 1522 1519 1516 1514 1510 1505 1500 1494 1490 1486 1482 1477 1472 1467 1461 1454 1448 1443 1438 1431 1425 1420 1415 1410
1504 1505 1508 1512 1516 1517 1518 1519 1521 1525 1527 1528 1528 1529 1529 1528 1526 1524 1522 1519 1516 1512 1509 1505 1500 1495 1490 1485 1480 1476 1473 1468 1463 1458 1452 1447 1440 1435 1429 1424 1419 1414 1408
1504 1506 1510 1514 1515 1515 1516 1517 1519 1521 1522 1524 1524 1522 1522 1524 1524 1523 1520 1516 1513 1509 1504 1500 1495 1491 1486 1481 1475 1471 1467 1463 1459 1454 1449 1443 1437 1432 1427 1421 1415 1410 1404
1502 1506 1510 1512 1513 1515 1518 1521 1522 1523 1522 1522 1523 1521 1520 1519 1520 1519 1516 1512 1509 1505 1500 1496 1491 1485 1480 1476 1471 1465 1461 1457 1453 1449 1444 1440 1434 1429 1422 1417 1411 1405 1399
1503 1506 1510 1515 1514 1517 1516 1516 1520 1521 1522 1523 1524 1522 1520 1520 1517 1515 1511 1507 1505 1500 1495 1491 1485 1480 1475 1470 1464 1458 1454 1450 1447 1443 1439 1434 1429 1424 1418 1412 1406 1400 1393
1503 1506 1511 1513 1514 1515 1516 1515 1514 1514 1518 1518 1520 1520 1520 1518 1514 1512 1509 1503 1499 1495 1490 1486 1481 1476 1470 1463 1456 1451 1447 1444 1441 1437 1433 1429 1424 1419 1412 1406 1400 1393 1386
1502 1506 1510 1512 1513 1513 1514 1514 1514 1511 1512 1514 1515 1516 1517 1515 1511 1507 1505 1500 1495 1490 1485 1480 1475 1468 1462 1455 1449 1445 1442 1438 1435 1431 1427 1423 1418 1414 1409 1402 1395 1387 1379
1500 1507 1510 1512 1512 1512 1513 1514 1514 1512 1510 1510 1512 1513 1512 1510 1507 1504 1501 1496 1491 1486 1480 1474 1468 1461 1455 1449 1443 1440 1436 1432 1429 1426 1422 1418 1414 1410 1404 1398 1390 1381 1372
1502 1505 1509 1509 1511 1511 1511 1510 1509 1508 1507 1507 1507 1509 1509 1506 1502 1500 1496 1491 1486 1481 1475 1468 1461 1455 1450 1444 1439 1435 1430 1427 1424 1420 1417 1414 1410 1406 1400 1393 1385 1376 1366
1500 1504 1507 1508 1509 1508 1508 1508 1505 1505 1504 1505 1505 1504 1504 1502 1499 1495 1491 1486 1481 1476 1468 1462 1456 1450 1445 1440 1435 1431 1427 1422 1418 1415 1413 1410 1406 1402 1396 1389 1381 1372 1362
1500 1503 1506 1506 1508 1507 1505 1504 1502 1507 1505 1503 1501 1501 1500 1498 1495 1491 1486 1481 1476 1469 1463 1457 1452 1447 1442 1437 1432 1428 1424 1419 1415 1412 1409 1406 1402 1398 1393 1386 1378 1368 1359
1498 1502 1504 1505 1505 1505 1505 1503 1502 1503 1503 1500 1499 1498 1496 1493 1490 1486 1481 1476 1470 1464 1459 1454 1449 1445 1440 1435 1431 1426 1421 1417 1412 1408 1404 1401 1398 1396 1390 1384 1376 1366 1356
Wind_Speed
23 20 16 16 15 13 16 11 6 2 2 4 5 6 7 8 9 10 12 14 16 17 17 12 9 9 9 10 10 10 10 11 14 18 14 11 12 13 13 15 16 17 18
25 21 18 16 15 19 15 11 5 2 5 7 7 8 9 11 11 12 13 16 18 19 15 11 10 9 9 10 10 10 10 11 14 17 18 16 14 12 13 13 14 17 18
24 21 19 17 18 17 12 9 5 5 8 8 8 9 10 12 12 13 14 16 16 12 12 13 14 14 13 13 13 13 13 13 13 15 18 18 20 18 18 15 14 15 18
21 20 19 16 18 14 11 10 8 8 9 8 10 11 12 13 13 13 12 10 10 11 12 15 17 18 18 16 16 16 16 16 16 17 18 18 18 18 17 18 19 18 20
13 13 12 14 14 13 13 11 11 9 8 8 10 12 12 12 8 8 10 11 14 15 16 15 16 17 18 19 21 21 20 19 19 20 21 21 19 20 18 19 21 23 23
19 10 15 18 16 16 14 11 11 10 8 10 11 11 9 9 9 10 13 13 14 14 15 15 15 16 17 18 19 19 20 22 24 24 24 24 25 25 25 26 25 26 31
26 26 22 20 18 18 14 11 12 9 9 10 9 7 8 9 11 11 12 12 12 13 14 15 16 17 18 17 15 15 15 16 17 20 23 25 30 27 28 30 31 31 32
27 26 25 23 22 17 16 13 11 8 8 6 5 6 9 9 9 10 12 13 16 19 21 23 24 25 26 25 24 21 19 17 18 19 20 18 19 23 25 28 29 32 35
33 28 27 25 17 18 14 11 8 7 5 2 3 6 8 10 13 16 17 17 18 21 23 25 26 28 29 31 31 30 27 21 16 16 17 18 18 17 18 22 23 24 30
26 27 25 24 20 14 12 9 7 5 3 1 2 6 10 11 13 14 16 17 19 21 22 26 28 31 31 30 32 37 39 38 35 29 20 15 19 19 19 17 16 18 21
28 25 20 17 12 13 9 7 5 5 3 2 6 10 10 11 11 12 13 15 18 21 23 25 28 32 33 34 33 35 39 40 38 36 33 25 19 19 22 24 24 22 20
32 18 16 16 14 10 7 5 4 3 3 7 9 8 6 6 7 7 10 13 16 19 21 23 25 27 30 34 34 32 35 39 39 37 36 32 28 26 23 23 25 25 27
24 20 18 15 11 7 5 4 4 5 6 10 9 8 7 7 8 8 11 13 15 17 19 20 22 25 28 30 34 34 32 36 37 37 37 36 34 32 29 26 24 26 27
23 21 17 14 10 7 6 5 4 6 11 11 7 4 4 6 7 9 10 12 13 16 17 20 22 25 26 28 29 30 31 30 31 30 32 34 35 35 34 32 31 27 27
20 16 12 10 10 10 9 7 8 9 8 4 3 2 2 3 5 8 11 13 16 19 22 22 23 25 27 28 29 29 28 28 28 29 31 33 34 35 35 33 31 29 28
16 13 12 13 12 8 6 7 9 9 6 4 4 2 5 7 7 10 14 17 20 24 25 25 25 26 28 30 29 29 29 28 28 29 30 31 32 34 34 31 30 30 31
12 12 12 11 9 7 7 6 4 7 4 3 5 4 6 6 7 12 17 20 23 25 26 26 27 29 30 29 27 29 29 28 28 28 31 33 32 32 32 33 33 33 34
12 10 10 10 6 5 5 3 4 4 6 6 7 8 7 8 11 13 17 20 21 23 26 28 30 30 29 27 29 32 29 27 28 29 31 31 30 31 33 35 34 37 38
11 11 10 5 5 6 5 5 3 6 6 7 8 8 8 10 14 17 17 18 23 25 26 28 30 29 29 32 37 35 30 28 28 29 31 30 29 31 33 34 36 38 39
11 11 10 10 10 7 5 4 4 4 8 10 10 8 10 14 18 21 23 22 26 29 28 29 30 30 34 38 38 33 30 29 29 29 30 29 28 31 34 37 40 43 42
13 15 15 12 10 8 7 6 3 4 7 10 12 13 18 22 24 26 23 23 26 30 30 30 33 37 40 37 32 30 28 28 28 28 27 27 28 31 33 37 41 43 43
13 15 16 12 8 3 5 7 11 13 13 16 16 18 21 23 22 21 23 25 27 27 30 33 37 38 33 31 30 29 27 26 26 26 26 26 27 30 34 37 41 42 44
13 15 11 7 6 7 13 11 11 13 10 15 16 19 21 18 19 20 20 22 26 30 33 36 34 32 29 28 27 27 28 27 25 25 25 25 26 29 32 37 39 43 42
12 11 11 6 9 11 10 9 10 8 8 12 14 15 15 20 18 18 19 26 30 34 34 32 30 29 28 27 26 24 24 23 23 22 22 23 25 27 30 35 37 42 41
11 12 8 7 5 1 3 4 4 7 10 11 13 17 18 18 18 17 23 28 33 34 31 29 27 27 26 25 24 23 22 20 19 19 20 23 24 24 28 33 36 40 40
13 11 9 6 4 2 4 4 5 9 11 10 13 17 19 15 17 20 25 30 32 30 28 26 25 24 24 24 23 23 22 21 20 20 21 19 17 21 24 30 35 38 38
Wind_Direction
208 206 198 191 185 179 169 170 160 156 341 324 311 309 314 321 319 313 320 329 334 338 339 339 335 337 332 325 324 323 324 319 312 311 322 325 323 321 311 281 276 279 276
203 197 190 184 181 173 178 182 185 217 311 310 304 309 312 316 315 315 318 325 328 331 339 338 337 330 324 322 321 318 315 319 319 314 312 311 313 315 313 304 289 281 286
199 191 184 182 181 183 193 202 212 263 287 299 302 307 307 312 314 313 316 318 321 331 338 339 337 332 326 319 314 312 310 305 307 306 307 309 307 308 302 298 296 282 280
201 194 182 181 184 192 205 224 237 263 281 290 298 310 314 313 308 310 319 328 327 325 327 323 324 325 326 326 320 315 309 305 304 304 303 302 304 306 306 302 292 285 285
199 194 175 181 191 202 208 222 252 263 268 289 304 312 314 317 324 337 332 332 324 319 320 321 321 326 323 320 318 317 314 308 301 299 301 302 303 306 308 309 306 302 293
243 198 201 203 208 208 215 231 256 256 270 297 309 320 334 336 345 340 330 331 333 333 336 340 338 334 334 333 329 325 319 315 312 310 305 299 297 298 299 298 299 303 304
205 186 203 198 210 216 222 238 246 258 283 305 319 336 346 346 343 345 348 353 360 6 10 10 7 4 1 358 355 345 333 322 319 312 307 308 301 298 292 292 295 294 290
187 196 192 203 209 220 224 240 246 270 296 315 336 350 359 2 16 30 41 47 49 47 44 39 35 31 26 21 15 11 3 347 331 325 322 320 313 308 299 295 295 295 292
192 197 194 203 221 224 230 233 257 277 292 306 352 16 46 66 67 64 59 52 49 46 40 34 31 28 26 24 20 15 13 7 353 329 310 303 310 311 309 304 302 302 301
191 190 200 217 219 216 223 240 254 257 239 219 31 104 98 83 74 64 57 51 46 42 39 36 31 28 23 18 14 14 12 7 359 351 340 314 292 291 292 296 298 302 304
180 191 208 211 198 211 228 239 234 203 199 160 137 119 95 80 67 56 51 50 49 42 38 34 29 26 21 18 15 13 11 6 1 357 352 342 327 300 287 284 291 298 302
186 201 197 197 202 206 217 197 175 202 184 153 137 112 84 66 52 42 41 42 37 29 26 23 20 17 15 13 11 8 7 7 6 2 357 355 349 342 329 306 288 283 285
195 188 185 191 191 177 169 175 194 192 168 148 127 107 90 76 58 38 30 24 17 12 13 11 8 5 3 2 4 2 359 4 7 5 2 359 355 350 345 332 318 294 282
178 181 183 180 174 172 166 156 161 178 165 155 147 129 92 62 39 27 18 9 357 354 356 355 355 353 349 346 347 351 354 355 1 5 2 0 357 352 348 345 339 332 307
178 177 173 181 184 176 157 132 133 147 148 158 150 118 37 17 356 348 348 344 342 340 341 342 342 341 341 339 337 337 341 344 344 348 352 353 353 353 352 347 343 342 333
184 178 182 181 173 162 150 149 138 157 182 203 214 272 337 336 334 326 323 323 323 324 330 336 337 337 336 333 330 330 332 337 335 336 338 340 341 343 345 345 344 343 339
190 178 173 175 178 179 179 169 175 188 189 235 227 261 302 319 307 313 318 322 327 326 326 327 327 328 327 328 327 329 324 326 327 329 329 332 335 335 339 343 343 341 335
180 180 182 174 171 185 196 204 206 224 252 264 248 282 289 280 293 311 318 321 326 327 325 323 324 327 328 328 328 327 321 317 319 322 324 326 331 330 331 337 337 335 333
173 171 167 174 170 174 178 182 260 282 269 280 273 285 285 292 305 313 315 318 326 331 333 331 329 327 326 325 324 322 316 310 312 314 319 322 327 328 328 334 334 333 329
175 169 179 173 161 165 183 165 202 271 276 290 300 303 304 306 308 315 319 303 313 323 327 328 327 323 322 321 321 319 314 310 311 313 315 318 325 331 333 334 333 331 330
194 188 184 180 182 197 199 218 271 313 298 294 295 300 300 301 307 312 310 309 310 319 324 326 324 322 321 322 321 318 313 311 312 311 312 319 328 331 333 332 331 332 331
185 182 177 189 199 263 258 279 281 288 286 287 292 297 301 304 307 307 309 315 317 322 324 323 323 324 324 324 322 319 314 314 313 311 314 319 327 331 332 333 334 334 333
173 182 191 191 249 254 290 284 280 275 288 303 298 302 306 309 308 311 320 327 328 328 326 326 327 327 327 328 324 318 314 313 311 311 312 317 326 331 332 332 336 338 336
190 197 209 249 257 292 293 278 286 269 255 287 304 308 304 306 308 314 324 332 331 330 331 332 331 331 332 333 331 328 324 319 314 311 312 318 327 330 332 334 337 342 340
201 197 211 248 261 359 33 357 347 287 281 297 305 308 312 311 315 323 331 332 332 333 334 335 336 336 336 338 338 337 334 332 328 322 318 319 326 330 335 340 342 343 346
210 208 207 220 211 290 309 310 320 299 297 307 321 322 320 317 325 330 333 333 334 336 336 338 339 339 340 341 340 339 339 337 332 328 323 324 329 337 341 346 350 350 352